Temp
-6 -6 -6 -6 -6 -6 -6 -6 -7 -7 -7 -7 -7 -7 -7 -7 -7 -8 -8 -8 -8 -8 -8 -8 -8 -8 -9 -10 -10 -10 -10 -10 -10 -10 -10 -10 -11 -10 -11 -11 -11 -11 -11 -11 -12
-6 -6 -6 -6 -7 -6 -6 -7 -7 -7 -7 -7 -7 -7 -7 -8 -8 -8 -8 -8 -8 -8 -8 -8 -8 -9 -9 -10 -11 -11 -11 -10 -10 -10 -10 -10 -10 -10 -11 -11 -11 -11 -11 -11 -12
-7 -7 -7 -7 -7 -7 -7 -7 -7 -8 -8 -8 -8 -8 -8 -8 -8 -8 -8 -8 -8 -8 -8 -8 -8 -8 -9 -10 -11 -11 -11 -11 -11 -10 -11 -10 -10 -11 -11 -11 -11 -11 -11 -11 -11
-7 -7 -7 -7 -7 -7 -7 -7 -8 -8 -8 -8 -8 -8 -8 -8 -8 -8 -8 -8 -8 -8 -8 -8 -8 -9 -9 -10 -11 -11 -11 -11 -11 -11 -10 -11 -11 -11 -11 -11 -11 -11 -11 -11 -11
-7 -7 -7 -7 -7 -8 -8 -8 -8 -8 -8 -8 -8 -8 -8 -8 -8 -8 -8 -8 -8 -8 -8 -8 -8 -8 -10 -10 -10 -10 -10 -11 -11 -11 -11 -11 -11 -11 -11 -11 -11 -11 -11 -11 -12
-8 -7 -7 -8 -8 -8 -8 -8 -8 -8 -8 -8 -8 -8 -8 -8 -8 -8 -8 -8 -8 -8 -8 -8 -8 -8 -10 -10 -11 -11 -11 -11 -10 -10 -10 -11 -11 -11 -11 -11 -11 -12 -11 -11 -11
-8 -8 -8 -8 -8 -8 -8 -8 -8 -8 -8 -8 -8 -8 -8 -8 -8 -8 -8 -8 -8 -8 -8 -8 -8 -8 -10 -10 -11 -11 -11 -11 -11 -10 -11 -11 -11 -11 -11 -11 -11 -12 -12 -11 -11
-8 -8 -8 -8 -8 -8 -8 -8 -8 -8 -9 -9 -8 -8 -8 -8 -8 -8 -8 -8 -8 -8 -8 -8 -8 -8 -10 -11 -11 -11 -11 -11 -11 -11 -11 -11 -11 -11 -11 -11 -11 -12 -12 -12 -12
-8 -8 -8 -8 -8 -8 -8 -8 -9 -9 -9 -9 -8 -8 -8 -8 -8 -8 -8 -8 -8 -8 -8 -8 -9 -9 -10 -11 -11 -11 -11 -11 -11 -11 -11 -11 -11 -11 -11 -12 -12 -12 -12 -12 -12
-8 -8 -8 -8 -8 -8 -8 -9 -9 -9 -9 -9 -8 -8 -9 -9 -8 -8 -8 -8 -8 -9 -9 -9 -9 -10 -11 -11 -11 -11 -11 -11 -11 -11 -11 -11 -12 -12 -12 -12 -12 -12 -12 -12 -12
-9 -8 -8 -9 -9 -9 -9 -9 -9 -9 -9 -9 -9 -8 -9 -9 -9 -9 -9 -9 -9 -9 -9 -10 -10 -11 -11 -11 -11 -11 -11 -11 -11 -11 -12 -12 -11 -12 -12 -12 -12 -12 -12 -13 -13
-9 -9 -9 -9 -9 -9 -9 -9 -9 -9 -9 -9 -9 -9 -9 -9 -9 -9 -9 -9 -9 -9 -10 -10 -10 -11 -11 -11 -11 -11 -11 -11 -11 -11 -11 -11 -11 -11 -11 -11 -12 -11 -12 -13 -13
-9 -9 -9 -9 -9 -9 -9 -9 -9 -9 -9 -9 -9 -9 -9 -9 -10 -9 -9 -9 -10 -10 -10 -11 -11 -11 -11 -11 -11 -12 -12 -12 -12 -12 -11 -12 -12 -12 -12 -12 -12 -12 -13 -13 -13
-9 -9 -9 -9 -9 -9 -9 -9 -9 -9 -9 -9 -9 -9 -9 -9 -10 -10 -10 -10 -10 -10 -11 -11 -11 -11 -11 -12 -12 -12 -12 -12 -12 -12 -12 -12 -12 -12 -13 -13 -13 -13 -13 -13 -13
-9 -9 -9 -9 -9 -9 -9 -9 -9 -9 -9 -9 -9 -9 -9 -10 -10 -10 -10 -10 -11 -11 -11 -11 -11 -12 -12 -12 -12 -11 -12 -12 -12 -12 -12 -12 -12 -12 -13 -13 -13 -13 -14 -14 -14
-9 -9 -9 -9 -9 -9 -9 -9 -9 -9 -9 -9 -9 -10 -10 -9 -10 -10 -10 -11 -11 -11 -12 -12 -12 -12 -12 -12 -12 -12 -12 -12 -12 -12 -12 -12 -12 -12 -13 -13 -14 -14 -14 -15 -15
-9 -9 -9 -9 -9 -9 -9 -9 -9 -9 -10 -10 -10 -10 -9 -10 -10 -11 -11 -10 -11 -11 -11 -12 -12 -12 -12 -12 -12 -12 -12 -12 -12 -12 -13 -13 -13 -13 -15 -14 -14 -15 -15 -15 -15
-9 -9 -9 -9 -9 -9 -9 -9 -9 -9 -10 -10 -10 -10 -10 -10 -11 -11 -11 -11 -12 -11 -11 -12 -12 -12 -12 -12 -12 -12 -12 -12 -13 -13 -13 -14 -14 -14 -14 -14 -15 -15 -15 -15 -15
-9 -9 -9 -9 -9 -9 -9 -9 -9 -10 -10 -10 -11 -10 -10 -10 -11 -11 -11 -11 -12 -12 -12 -12 -12 -12 -12 -12 -12 -12 -13 -13 -13 -13 -14 -13 -14 -14 -14 -14 -14 -15 -15 -14 -15
-9 -9 -9 -9 -9 -9 -9 -9 -9 -10 -10 -10 -11 -11 -11 -10 -11 -11 -11 -12 -12 -12 -13 -13 -13 -13 -13 -12 -12 -13 -13 -13 -13 -14 -14 -14 -14 -14 -14 -15 -15 -15 -15 -15 -16
-9 -10 -10 -9 -9 -9 -9 -9 -10 -10 -10 -10 -10 -11 -11 -12 -11 -12 -12 -12 -12 -12 -12 -12 -12 -12 -12 -12 -12 -12 -12 -13 -13 -13 -14 -14 -14 -14 -15 -15 -15 -16 -16 -16 -16
-10 -10 -10 -10 -10 -10 -10 -10 -10 -10 -10 -11 -11 -12 -12 -12 -12 -12 -12 -11 -11 -11 -11 -11 -11 -11 -12 -12 -12 -12 -12 -13 -13 -14 -14 -14 -14 -14 -15 -15 -16 -16 -16 -16 -16
-10 -10 -10 -10 -10 -10 -9 -10 -10 -10 -11 -11 -12 -12 -12 -11 -11 -11 -11 -11 -11 -11 -11 -11 -11 -12 -12 -12 -12 -13 -13 -13 -13 -14 -13 -14 -14 -15 -15 -16 -16 -16 -16 -16 -17
-10 -10 -10 -10 -10 -10 -10 -10 -10 -10 -11 -11 -12 -12 -11 -11 -11 -11 -11 -11 -11 -11 -11 -11 -12 -12 -12 -12 -12 -13 -13 -13 -13 -13 -13 -14 -14 -15 -15 -16 -16 -16 -16 -17 -17
-10 -10 -10 -10 -10 -10 -10 -10 -10 -10 -10 -11 -11 -11 -11 -11 -11 -11 -11 -11 -11 -11 -11 -12 -12 -12 -12 -12 -13 -13 -13 -13 -13 -13 -14 -14 -15 -15 -15 -16 -16 -16 -17 -17 -18
-10 -10 -10 -10 -10 -10 -10 -10 -10 -11 -11 -11 -11 -11 -11 -11 -11 -11 -11 -11 -11 -11 -11 -12 -12 -12 -12 -13 -13 -13 -13 -13 -13 -14 -14 -14 -15 -15 -15 -16 -16 -17 -18 -18 -18
-10 -10 -10 -10 -10 -10 -11 -11 -11 -11 -11 -11 -11 -11 -12 -11 -11 -11 -11 -11 -11 -11 -12 -12 -12 -13 -13 -13 -13 -13 -13 -14 -14 -14 -14 -14 -15 -15 -15 -16 -17 -17 -18 -18 -18
Height
5887 5887 5887 5887 5886 5885 5885 5884 5884 5884 5884 5884 5884 5884 5885 5887 5887 5888 5889 5891 5892 5893 5895 5896 5897 5898 5898 5899 5900 5902 5903 5903 5904 5904 5904 5904 5903 5903 5902 5901 5899 5897 5894 5891 5889
5885 5885 5885 5885 5884 5883 5882 5881 5882 5881 5882 5882 5882 5883 5884 5885 5885 5888 5890 5891 5892 5894 5896 5896 5897 5898 5898 5899 5901 5901 5902 5902 5903 5903 5903 5903 5903 5903 5902 5900 5898 5896 5892 5890 5888
5883 5884 5884 5883 5882 5880 5879 5879 5880 5880 5881 5881 5881 5882 5883 5884 5886 5888 5889 5891 5893 5894 5895 5895 5896 5898 5899 5900 5900 5899 5901 5902 5903 5902 5902 5902 5902 5902 5901 5900 5898 5895 5892 5889 5887
5882 5882 5882 5881 5879 5878 5878 5878 5879 5880 5881 5881 5881 5882 5884 5885 5888 5888 5890 5892 5893 5894 5895 5896 5897 5898 5899 5900 5898 5900 5900 5901 5902 5902 5901 5901 5901 5901 5900 5899 5896 5894 5890 5888 5885
5880 5881 5880 5879 5879 5878 5878 5878 5879 5881 5881 5881 5882 5883 5884 5886 5887 5889 5890 5893 5894 5895 5896 5897 5897 5897 5898 5899 5898 5900 5900 5901 5901 5901 5900 5900 5899 5900 5898 5897 5894 5892 5888 5884 5881
5879 5879 5879 5878 5878 5877 5878 5879 5880 5881 5881 5882 5882 5884 5886 5887 5888 5889 5891 5893 5894 5895 5896 5897 5897 5897 5898 5897 5898 5899 5900 5900 5899 5899 5898 5898 5898 5898 5897 5895 5892 5890 5886 5882 5879
5877 5878 5878 5877 5878 5879 5880 5880 5881 5882 5882 5883 5884 5886 5887 5889 5889 5890 5892 5893 5894 5894 5895 5896 5896 5897 5897 5896 5898 5898 5899 5898 5897 5897 5896 5896 5896 5895 5894 5891 5889 5887 5883 5879 5875
5876 5878 5878 5879 5879 5879 5880 5882 5883 5884 5884 5884 5886 5887 5888 5888 5890 5891 5892 5892 5893 5894 5895 5896 5896 5896 5896 5896 5897 5897 5898 5898 5897 5895 5894 5895 5894 5891 5889 5888 5886 5883 5879 5875 5870
5876 5877 5878 5878 5879 5880 5882 5883 5884 5885 5885 5885 5887 5888 5889 5890 5891 5891 5892 5892 5893 5894 5896 5896 5897 5897 5898 5898 5898 5897 5897 5896 5895 5893 5892 5891 5890 5888 5885 5882 5879 5876 5872 5868 5863
5876 5877 5877 5878 5880 5881 5883 5883 5884 5885 5885 5886 5887 5890 5890 5891 5891 5892 5892 5893 5894 5895 5896 5896 5897 5898 5898 5899 5900 5899 5898 5896 5894 5892 5889 5888 5886 5884 5880 5877 5873 5869 5865 5861 5857
5874 5875 5877 5878 5880 5881 5883 5884 5886 5887 5886 5887 5888 5889 5890 5890 5891 5891 5892 5894 5895 5896 5896 5896 5898 5898 5899 5899 5898 5897 5895 5893 5891 5888 5886 5883 5881 5878 5874 5871 5867 5863 5859 5856 5851
5873 5874 5877 5878 5879 5880 5881 5883 5884 5886 5886 5887 5888 5889 5890 5890 5891 5891 5892 5894 5895 5895 5896 5898 5898 5898 5897 5896 5895 5894 5891 5889 5886 5883 5881 5878 5876 5873 5869 5865 5861 5857 5852 5849 5846
5873 5874 5876 5877 5878 5879 5880 5882 5883 5884 5886 5887 5888 5888 5890 5891 5891 5891 5891 5893 5894 5894 5896 5896 5896 5895 5894 5892 5891 5889 5887 5885 5883 5879 5876 5872 5871 5866 5862 5858 5855 5849 5845 5841 5837
5873 5874 5875 5876 5878 5878 5880 5881 5882 5884 5886 5888 5887 5888 5889 5889 5890 5890 5890 5893 5893 5893 5894 5894 5894 5893 5891 5889 5888 5886 5884 5881 5878 5874 5870 5867 5863 5861 5854 5849 5845 5841 5837 5833 5830
5871 5873 5873 5875 5876 5878 5879 5880 5881 5883 5885 5887 5887 5887 5887 5889 5890 5890 5890 5892 5892 5891 5892 5892 5891 5890 5889 5887 5886 5883 5879 5876 5872 5868 5865 5862 5856 5854 5847 5842 5837 5834 5829 5825 5823
5870 5871 5872 5874 5876 5877 5877 5879 5880 5883 5883 5885 5886 5886 5887 5888 5888 5889 5890 5891 5891 5891 5890 5889 5888 5888 5887 5884 5881 5878 5875 5871 5867 5863 5859 5855 5851 5846 5840 5836 5830 5826 5823 5819 5815
5869 5870 5872 5873 5875 5875 5877 5878 5881 5881 5884 5885 5886 5887 5888 5888 5888 5888 5889 5890 5890 5890 5888 5887 5886 5885 5883 5881 5877 5873 5871 5867 5864 5859 5855 5849 5845 5839 5832 5829 5824 5820 5816 5812 5808
5869 5870 5871 5872 5873 5874 5876 5878 5880 5881 5882 5884 5885 5886 5888 5887 5888 5888 5888 5887 5887 5887 5885 5884 5883 5882 5880 5878 5874 5869 5866 5862 5855 5851 5847 5843 5840 5834 5828 5823 5820 5816 5811 5806 5801
5868 5869 5870 5871 5872 5873 5875 5877 5878 5879 5882 5883 5884 5885 5886 5887 5887 5886 5886 5885 5884 5884 5883 5881 5879 5876 5874 5871 5869 5862 5859 5855 5848 5844 5840 5838 5833 5828 5823 5818 5814 5811 5806 5801 5795
5867 5868 5868 5869 5870 5871 5873 5876 5877 5878 5880 5881 5882 5883 5884 5884 5884 5883 5882 5882 5881 5879 5878 5877 5874 5870 5867 5864 5860 5857 5852 5847 5843 5838 5834 5831 5827 5823 5818 5814 5810 5806 5800 5795 5789
5865 5866 5866 5867 5869 5870 5871 5873 5875 5876 5878 5879 5879 5880 5880 5880 5879 5878 5878 5878 5876 5875 5873 5871 5869 5866 5862 5859 5855 5851 5845 5841 5837 5834 5830 5827 5823 5818 5814 5810 5805 5800 5794 5788 5782
5862 5864 5864 5866 5868 5868 5869 5870 5873 5873 5874 5875 5876 5876 5876 5876 5875 5875 5874 5873 5872 5871 5869 5866 5864 5861 5857 5853 5847 5843 5839 5836 5834 5832 5828 5824 5820 5815 5811 5805 5800 5794 5788 5781 5774
5859 5860 5862 5864 5865 5865 5867 5868 5869 5871 5872 5872 5872 5872 5871 5871 5872 5871 5870 5869 5868 5866 5864 5861 5859 5856 5852 5849 5843 5839 5836 5834 5831 5828 5825 5821 5817 5811 5806 5801 5795 5788 5781 5775 5768
5857 5858 5860 5861 5862 5863 5864 5865 5867 5867 5867 5868 5868 5868 5868 5867 5867 5866 5866 5865 5864 5862 5859 5857 5854 5850 5847 5844 5841 5837 5835 5832 5829 5826 5822 5817 5812 5807 5801 5796 5789 5783 5776 5769 5762
5854 5855 5856 5857 5859 5859 5860 5861 5862 5863 5865 5865 5865 5864 5864 5863 5862 5862 5861 5860 5859 5855 5852 5850 5848 5845 5842 5839 5837 5835 5833 5830 5827 5823 5819 5814 5809 5803 5797 5791 5784 5777 5770 5763 5756
5850 5852 5852 5853 5854 5856 5856 5857 5858 5859 5860 5860 5860 5859 5858 5857 5858 5857 5856 5855 5853 5850 5847 5845 5844 5841 5839 5837 5836 5834 5831 5828 5825 5821 5816 5811 5806 5799 5793 5786 5779 5772 5765 5758 5752
5846 5847 5848 5849 5850 5852 5853 5853 5854 5854 5855 5854 5854 5853 5853 5854 5853 5853 5851 5849 5847 5845 5843 5841 5840 5838 5837 5836 5834 5833 5829 5826 5822 5818 5813 5807 5802 5795 5788 5780 5773 5767 5760 5754 5747
Wind_Speed
12 13 13 13 13 13 14 15 15 15 14 14 13 12 12 10 8 7 5 4 4 2 0 3 2 1 5 10 10 7 7 5 6 10 9 5 6 11 15 15 15 15 14 15 16
12 13 13 12 12 14 15 15 13 9 9 10 9 8 8 7 7 6 5 4 2 4 5 2 2 2 6 14 9 9 9 7 9 11 10 8 10 12 7 9 12 13 17 17 18
11 11 11 11 12 13 11 9 6 5 5 5 4 5 5 6 6 6 6 6 6 5 4 3 2 2 6 15 13 12 10 9 10 12 11 13 14 2 4 10 14 14 19 21 21
10 9 9 10 10 8 6 4 3 2 3 3 4 5 6 6 7 7 7 8 6 6 3 3 3 3 3 17 19 14 14 10 12 13 14 8 7 4 7 12 14 19 22 23 25
8 7 8 7 5 3 1 1 2 3 4 5 5 6 6 7 8 8 8 6 4 3 2 2 0 3 5 11 15 14 13 14 17 16 13 7 10 11 15 16 16 19 25 26 24
6 5 5 3 1 1 2 3 5 6 6 6 7 6 6 7 7 8 7 5 3 3 2 3 3 2 8 7 7 9 13 14 17 17 12 10 11 13 18 19 19 21 26 23 26
4 3 2 1 2 3 4 5 7 6 6 6 7 6 5 4 6 8 7 6 4 2 0 3 5 5 5 5 4 10 15 17 17 15 14 14 17 19 21 23 24 24 29 34 35
4 2 2 1 3 5 5 6 6 6 6 5 5 5 3 4 6 7 6 6 4 2 2 4 3 4 6 6 10 10 11 13 13 16 17 18 19 21 22 24 27 29 34 37 38
6 4 3 3 4 5 6 7 7 7 6 5 4 5 5 3 3 4 4 3 2 3 3 4 5 5 6 8 11 8 9 9 10 11 12 16 19 22 26 28 32 36 38 38 38
8 6 4 2 4 5 6 8 9 9 7 6 5 5 5 3 1 1 3 4 5 3 4 7 6 6 9 12 13 13 13 15 17 16 18 20 22 25 29 33 31 32 36 33 31
9 7 5 5 6 6 7 7 7 7 7 6 5 5 6 4 2 2 4 6 6 5 5 6 5 8 10 15 16 16 18 17 18 19 21 24 26 26 28 29 35 38 38 30 31
8 8 8 7 9 9 10 9 8 7 7 6 5 5 5 4 1 4 6 5 6 4 4 5 8 9 11 14 16 18 14 16 18 20 24 24 24 28 30 32 35 36 33 31 30
8 8 8 10 11 11 10 9 9 8 7 7 6 6 5 4 3 6 9 6 5 5 6 7 8 13 15 13 11 12 17 19 20 24 26 28 28 31 34 35 34 35 35 36 37
10 9 10 11 11 10 10 10 8 8 7 7 7 6 7 6 6 8 10 7 6 8 9 8 10 11 12 16 18 19 24 24 23 26 29 34 36 35 35 36 38 35 35 33 29
11 11 11 11 10 10 9 8 8 8 9 9 9 8 8 7 6 9 10 6 9 11 13 12 15 16 17 19 19 21 25 26 32 35 37 39 40 33 32 31 31 31 31 29 24
11 12 12 10 9 9 8 8 8 9 8 8 9 8 8 8 7 8 7 7 10 9 11 12 12 14 16 18 21 25 29 30 33 36 38 35 31 30 32 36 32 31 29 30 32
10 10 10 9 10 9 8 7 8 9 7 7 6 6 7 7 7 7 7 8 7 4 8 11 13 15 19 23 27 29 33 34 34 37 34 33 36 32 34 28 33 30 29 30 32
9 9 9 7 8 7 7 7 9 9 9 4 6 5 4 5 6 9 8 7 8 9 10 14 18 20 22 24 28 33 35 36 39 37 34 33 35 30 29 27 25 27 27 30 34
8 8 8 8 8 7 7 7 8 8 9 9 8 9 7 7 6 6 6 8 10 11 14 19 24 26 27 29 31 36 38 37 37 34 32 32 26 25 22 24 24 25 27 26 33
8 8 8 9 9 8 8 6 8 8 8 9 9 10 10 9 11 10 12 13 15 18 20 23 28 31 33 34 38 38 39 36 31 30 28 24 22 23 24 22 23 27 31 36 37
11 9 11 12 11 10 10 8 8 10 10 10 11 12 13 14 14 16 17 19 20 23 25 27 28 32 35 37 38 38 33 28 23 20 21 24 24 24 23 24 28 32 34 35 36
13 12 13 13 12 13 12 11 10 10 11 12 13 15 17 18 18 18 20 19 21 21 23 26 30 33 36 38 36 29 26 22 18 19 21 22 24 26 29 30 33 34 36 37 39
13 13 13 13 13 15 14 14 13 11 10 12 15 18 20 20 20 18 19 20 21 23 27 31 33 34 34 27 24 21 16 16 19 20 21 24 25 27 31 28 31 34 37 38 39
12 12 13 14 14 15 16 15 14 11 11 13 16 18 17 18 18 20 21 21 22 26 29 31 31 26 21 20 15 10 14 15 17 20 24 24 27 29 31 30 33 33 34 35 37
14 15 15 15 14 14 14 15 15 13 12 13 15 16 16 17 18 18 21 23 26 29 31 28 21 19 17 12 7 10 13 15 19 23 25 26 29 30 30 31 33 33 32 33 33
15 16 16 16 15 14 14 14 14 12 12 12 14 16 18 20 20 21 22 25 28 28 22 17 17 13 7 5 7 9 13 17 22 25 26 27 29 31 32 33 33 30 30 31 31
14 13 14 16 16 15 14 15 15 15 15 16 17 18 19 19 20 21 25 26 24 19 17 17 11 3 3 5 7 11 15 19 23 25 26 29 31 32 34 35 32 30 32 36 35
Wind_Direction
265 273 279 284 287 288 288 287 285 280 275 268 259 253 252 250 247 236 209 209 199 208 133 105 66 129 164 170 166 167 175 207 257 302 308 300 344 357 4 6 4 353 0 353 346
264 274 280 284 287 290 291 290 285 281 269 258 251 244 235 225 214 200 186 182 147 98 99 109 104 199 203 179 192 192 201 241 276 302 291 294 327 348 359 23 360 345 341 337 336
267 275 280 286 291 293 291 290 283 269 248 238 226 209 193 183 183 179 164 131 117 103 100 111 88 291 241 185 202 231 230 254 273 280 294 309 311 31 38 360 355 340 332 327 332
268 278 285 294 297 295 288 281 262 233 217 193 176 169 169 166 165 159 141 127 130 118 123 108 98 81 202 191 212 228 249 276 273 278 293 299 298 242 349 340 335 336 330 325 321
268 277 292 297 295 279 267 207 174 170 171 164 155 152 149 148 157 157 139 144 137 115 65 22 114 106 129 200 220 247 260 272 273 279 288 280 289 295 318 321 321 323 325 321 318
257 282 300 303 305 80 154 150 157 164 163 148 135 125 131 151 159 158 152 154 153 89 27 328 289 175 134 189 234 261 260 256 276 277 294 295 291 299 308 310 310 313 319 314 314
254 281 306 337 117 143 152 157 156 157 142 125 116 111 126 144 156 166 177 184 184 166 265 296 274 232 201 245 260 265 270 262 268 296 319 320 311 304 299 301 306 308 312 313 314
217 250 278 186 148 148 148 144 138 139 137 131 120 115 152 134 160 179 197 209 217 227 271 288 276 266 217 258 268 270 264 284 309 311 306 308 310 308 305 300 300 302 305 307 310
210 223 218 186 148 143 146 131 135 144 153 165 154 140 141 155 166 179 206 242 284 288 312 309 319 294 239 229 248 262 268 277 286 295 301 309 311 306 300 297 301 306 306 306 305
208 212 202 170 136 138 142 151 158 161 163 170 171 152 149 166 208 255 265 277 288 280 315 323 315 259 221 226 234 246 256 272 279 291 295 298 297 296 291 293 302 314 319 312 305
211 208 188 166 151 155 160 166 170 170 171 169 169 169 161 180 206 254 275 289 284 296 324 321 271 214 234 254 256 268 273 278 279 289 292 292 295 298 296 295 302 312 317 312 308
207 201 188 167 177 187 188 185 183 182 179 172 173 172 176 188 219 275 280 289 291 301 309 281 265 258 266 268 274 275 292 309 298 301 308 300 295 299 301 299 304 310 313 307 305
196 192 183 188 194 196 194 192 186 181 185 184 183 195 202 199 224 265 271 282 291 289 289 285 291 296 298 303 321 321 320 317 312 309 310 311 311 311 312 313 311 310 308 305 310
206 205 203 203 204 204 203 200 195 193 199 203 204 209 218 214 218 251 267 276 278 291 295 310 317 318 327 325 325 317 309 303 307 316 318 321 315 316 315 310 309 310 307 308 314
210 208 213 212 210 208 202 201 201 197 205 187 182 183 199 198 216 220 244 268 292 293 302 312 319 318 320 318 315 307 305 304 307 310 312 313 310 317 316 316 312 312 310 315 309
202 205 214 212 211 211 205 201 206 201 192 188 185 193 206 218 216 233 256 247 247 256 285 306 312 316 314 313 318 321 321 317 312 311 314 318 320 323 321 319 314 313 316 313 312
191 198 211 205 208 209 207 211 212 208 201 185 191 221 229 234 242 247 260 259 260 257 324 326 322 319 313 313 310 311 316 316 315 315 314 318 324 319 317 312 311 318 315 310 313
195 202 212 208 211 210 211 209 217 220 204 207 228 238 259 261 265 266 267 288 267 298 320 325 323 319 312 307 305 309 315 318 317 317 316 318 322 317 315 320 315 317 321 314 315
194 202 207 209 223 224 222 222 225 229 223 234 249 258 257 260 255 276 284 291 296 306 313 313 312 310 309 311 313 315 318 318 316 314 316 323 323 320 320 317 312 322 324 315 306
207 208 208 208 213 227 235 238 245 248 244 242 239 256 275 296 298 305 310 305 304 303 302 303 304 305 309 314 317 317 316 315 317 316 322 331 327 326 325 323 321 321 315 313 313
223 220 223 223 229 236 248 250 256 267 271 271 275 280 290 298 302 300 296 299 300 299 299 301 301 306 313 317 317 317 316 322 326 332 334 333 332 334 335 326 322 319 317 316 316
235 231 229 230 233 244 252 261 261 260 266 272 275 279 278 278 280 287 285 284 286 292 298 301 306 311 315 317 317 320 326 336 345 343 341 338 337 336 330 326 324 321 319 318 317
234 233 234 238 244 253 261 264 265 266 261 256 262 260 263 266 272 285 287 289 293 299 303 307 310 311 312 316 318 325 338 345 347 349 344 342 336 333 329 326 323 322 321 319 316
233 241 247 251 257 263 268 270 263 251 243 247 252 261 274 279 279 281 285 291 297 301 302 306 309 311 316 318 324 344 350 357 354 348 345 342 334 331 328 326 324 324 321 321 322
248 252 254 259 257 260 264 267 269 262 249 247 255 269 271 272 274 283 289 295 300 302 305 309 315 318 321 327 1 0 360 358 353 351 346 340 336 332 330 329 327 327 332 336 337
256 258 261 263 262 260 262 262 262 264 262 255 259 267 273 280 286 291 293 294 298 302 308 311 316 324 332 17 16 8 3 359 355 352 347 341 336 333 332 332 332 333 334 334 334
254 256 261 265 265 265 264 264 265 264 263 264 266 268 271 277 281 287 294 301 303 308 306 311 319 336 28 31 21 9 3 357 351 351 347 342 340 336 335 334 334 334 334 329 325